[[{"header":{"parameterUnit":"m.s-1","parameterCategory":1,"la1":30.2991,"la2":30.254,"lo1":-89.0895,"lo2":-89.0444,"dy":0.0017,"dx":0.0017,"nx":28,"ny":28,"refTime":"2025-09-09T09:00:00:Z","depth":0,"parameterNumber":2,"parameterNumberName":"U-component_of_WINDS"},"data":[0,0,0,0,0,0,0,0,0,0,0,0,0,0,0,0,0,0,0,0,0,0,0,0,0,0,0,0,0,0,0,0,0,0,0,0,0,0,0,0,0,0,0,0,0,0,0,0,0,0,0,0,0,0,0,0,0,0,-2.7772,-2.7772,0,-2.7778,-2.7778,-2.7778,-2.7668,-2.7666,-2.7663,-2.766,-2.7669,-2.7672,-2.7675,0,0,0,0,0,0,0,0,0,0,0,0,0,-2.7669,-2.7672,-2.7772,-2.7772,-2.7772,-2.7778,-2.7778,-2.7778,-2.7669,-2.7665,-2.7662,-2.7658,-2.7668,-2.7672,-2.7675,0,0,0,0,0,0,0,0,0,0,0,0,0,-2.7699,-2.7673,-2.7772,-2.7718,-2.7713,-2.7778,-2.7778,-2.7778,-2.767,-2.7665,-2.7661,-2.7657,-2.7667,-2.7671,-2.7676,-2.7793,0,0,-2.769,-2.7692,0,0,0,0,0,0,0,0,-2.7697,-2.7702,-2.7726,-2.7722,-2.7717,-2.7718,-2.7745,-2.7783,-2.7671,-2.7686,-2.766,-2.7655,-2.7689,-2.7692,-2.7703,-2.7793,-2.7794,-2.769,-2.7693,-2.7695,-2.7696,0,0,0,0,0,0,0,-2.7695,-2.7702,-2.7774,-2.7726,-2.7721,-2.7695,-2.7694,-2.7752,-2.7713,-2.7685,-2.7677,-2.7679,-2.7686,-2.7699,-2.7702,-2.7794,-2.769,-2.7694,-2.7697,-2.7699,-2.7982,-2.7987,0,0,0,0,0,0,-2.77,-2.7701,-2.7774,-2.7774,-2.7696,-2.77,-2.77,-2.7722,-2.7712,-2.7706,-2.7683,-2.7674,-2.7693,-2.7697,-2.7702,-2.7839,-2.7695,-2.7699,-2.7702,-2.7978,-2.7983,-2.7989,0,0,0,0,0,0,-2.7698,-2.7708,-2.7774,-2.7735,-2.7742,-2.7707,-2.7733,-2.7724,-2.7737,-2.771,-2.7703,-2.7703,-2.769,-2.7696,-2.7771,-2.7838,-2.7701,-2.7705,-2.7972,-2.7979,-2.7986,-2.8114,0,0,0,0,0,0,-2.7696,-2.7708,-2.7751,-2.7737,-2.7744,-2.7842,-2.7737,-2.7728,-2.7745,-2.7733,-2.7727,-2.7722,-2.7687,-2.7765,-2.7776,-2.7842,-2.7709,-2.7966,-2.7975,-2.7984,-2.8104,-2.8125,-2.8143,0,0,0,0,0,-2.7692,-2.7787,-2.7753,-2.7763,-2.7797,-2.7846,-2.785,-2.7807,-2.775,-2.7794,-2.7777,-2.7722,-2.7829,-2.7774,-2.7785,-2.7853,-2.7961,-2.7972,-2.7983,-2.8095,-2.8121,-2.8142,0,0,0,0,0,0,-2.781,-2.7784,-2.7747,-2.7839,-2.7846,-2.7827,-2.7881,-2.7835,-2.7859,-2.7847,-2.7793,-2.7793,-2.7878,-2.7873,-2.7812,-2.7966,-2.7885,-2.7899,-2.7967,-2.7991,-2.801,-2.801,-2.7712,0,0,0,0,0,-2.7847,-2.7887,-2.7863,-2.7947,-2.7952,-2.7917,-2.7936,-2.7902,-2.7907,-2.791,-2.7898,-2.7906,-2.7941,-2.7965,-2.7996,-2.8102,-2.81,-2.8155,-2.8175,-2.8191,-2.8203,-2.8261,-2.8285,-2.8024,-2.8024,-2.8024,0,0,-2.7923,-2.7914,-2.7943,-2.7971,-2.7971,-2.8016,-2.792,-2.7971,-2.8004,-2.7917,-2.7988,-2.798,-2.7985,-2.8077,-2.8117,-2.8076,-2.8275,-2.8205,-2.8218,-2.8221,-2.8274,-2.8299,-2.8321,-2.8032,-2.803,-2.8029,0,0,-2.8085,-2.8081,-2.8152,-2.8155,-2.8157,-2.8133,-2.815,-2.8139,-2.813,-2.82,-2.8137,-2.8176,-2.8238,-2.8244,-2.8256,-2.8422,-2.8373,-2.8434,-2.8536,-2.8592,-2.8613,-2.8631,-2.8691,-2.8713,-2.8446,-2.8446,-2.8447,0,-2.8179,-2.8243,-2.8194,-2.8249,-2.8264,-2.8188,-2.8259,-2.8265,-2.8278,-2.8291,-2.8244,-2.832,-2.8318,-2.8411,-2.8452,-2.8463,-2.8482,-2.8434,-2.8614,-2.8631,-2.8647,-2.8704,-2.8727,-2.8454,-2.8453,-2.8452,-2.8452,0,-2.836,-2.8405,-2.8462,-2.8476,-2.8497,-2.8561,-2.8522,-2.855,-2.8515,-2.8496,-2.8569,-2.8564,-2.8593,-2.8613,-2.8579,-2.8702,-2.8676,-2.8623,-2.854,-2.868,-2.8733,-2.8755,-2.8465,-2.8462,-2.846,-2.8458,0,0,-2.8596,-2.8582,-2.8604,-2.861,-2.8607,-2.8642,-2.8703,-2.8731,-2.8756,-2.8768,-2.8819,-2.8873,-2.8824,-2.8837,-2.8803,-2.8853,-2.8986,-2.8793,-2.8792,-2.883,-2.9123,-2.9164,-2.919,-2.8953,-2.8957,-2.896,-2.9123,0,-2.8754,-2.8855,-2.8814,-2.892,-2.8962,-2.8891,-2.8944,-2.8949,-2.8934,-2.8968,-2.8951,-2.8991,-2.8922,-2.893,-2.8976,-2.896,-2.9045,-2.8948,-2.9001,-2.9004,-2.9003,-2.9217,-2.9261,-2.9414,-2.9143,-2.9146,-2.9149,0,-2.8951,-2.8971,-2.9082,-2.9073,-2.9089,-2.9137,-2.916,-2.9194,-2.9199,-2.9184,-2.92,-2.9156,-2.9216,-2.9134,-2.9217,-2.9153,-2.9172,-2.9168,-2.9173,-2.9177,-2.9086,-2.9228,-2.9462,-2.9486,-2.9181,-2.9178,-2.9176,0,-2.9114,-2.9168,-2.9241,-2.9248,-2.924,-2.9276,-2.9274,-2.9275,-2.9294,-2.9315,-2.9327,-2.9355,-2.9371,-2.9394,-2.9359,-2.9302,-2.9448,-2.9363,-2.9439,-2.9441,-2.9474,-2.9473,-2.9715,-2.9485,-2.9485,-2.9485,-2.9484,0,-2.9295,-2.9366,-2.9314,-2.936,-2.9437,-2.9389,-2.9468,-2.9458,-2.946,-2.9503,-2.9443,-2.9485,-2.9436,-2.9474,-2.9447,-2.9522,-2.9529,-2.952,-2.9512,-2.9526,-2.9527,-2.9538,-2.9527,-2.9491,-2.9489,-2.9488,-2.9487,0,-2.949,-2.9458,-2.9533,-2.9519,-2.9517,-2.9575,-2.9564,-2.9606,-2.9586,-2.9642,-2.9652,-2.9622,-2.9664,-2.9631,-2.9673,-2.9655,-2.9753,-2.973,-2.9752,-2.9745,-2.9825,-2.9818,-3.0084,-3.0117,-2.9865,-2.9867,-2.9869,0,-2.9608,-2.9661,-2.9652,-2.9677,-2.9679,-2.9718,-2.9738,-2.9693,-2.9717,-2.9727,-2.9769,-2.9805,-2.9832,-2.9903,-2.9885,-2.9917,-2.9895,-2.9986,-2.9899,-2.9912,-2.9898,-2.9895,-2.9901,-3.0004,-3.0007,-3.0009,-3.0011,0,-2.9822,-2.9804,-2.9834,-2.986,-2.9885,-2.9903,-2.9917,-2.9941,-2.9895,-2.9925,-2.9966,-2.9987,-3.0029,-3.0067,-3.0093,-3.0092,-3.0046,-3.0038,-3.0058,-3.0073,-3.0084,-3.008,-2.98,-3.0033,-3.003,-3.0029,-3.0028,-3.0027,-2.9983,-3.0027,-3.0028,-3.0064,-3.007,-3.0084,-3.0123,-3.0109,-3.0142,-3.0172,-3.0144,-3.0195,-3.02,-3.023,-3.0235,-3.0275,-3.0238,-3.0266,-3.0273,-3.0281,-3.0293,-3.0077,-3.028,-3.0279,-3.0278,-3.0278,-3.0277,0,-3.0194,-3.0191,-3.0225,-3.0246,-3.0276,-3.0227,-3.024,-3.0268,-3.0313,-3.0322,-3.0349,-3.0398,-3.0435,-3.0421,-3.0453,-3.0488,-3.0468,-3.0498,-3.0496,-3.0497,-3.0324,-3.0304,-3.0515,-3.0515,-3.0515,-3.0515,-3.0514,-3.0514,-3.0308,-3.038,-3.0363,-3.0438,-3.0434,-3.0483,-3.0495,-3.0508,-3.0515,-3.0572,-3.0602,-3.0592,-3.0592,-3.0624,-3.0656,-3.0651,-3.0667,-3.0706,-3.0693,-3.0532,-3.0509,-3.0487,-3.0468,-3.0709,-3.0709,-3.0863,-3.0864,-3.0865]},{"header":{"parameterUnit":"m.s-1","parameterCategory":1,"la1":30.2991,"la2":30.254,"lo1":-89.0895,"lo2":-89.0444,"dy":0.0017,"dx":0.0017,"nx":28,"ny":28,"refTime":"2025-09-09T09:00:00:Z","depth":0,"parameterNumber":3,"parameterNumberName":"V-component_of_WINDS"},"data":[0,0,0,0,0,0,0,0,0,0,0,0,0,0,0,0,0,0,0,0,0,0,0,0,0,0,0,0,0,0,0,0,0,0,0,0,0,0,0,0,0,0,0,0,0,0,0,0,0,0,0,0,0,0,0,0,0,0,1.1621,1.162,0,1.154,1.1539,1.1538,1.1522,1.1523,1.1523,1.1524,1.1435,1.1432,1.1429,0,0,0,0,0,0,0,0,0,0,0,0,0,1.1756,1.1753,1.1621,1.162,1.1619,1.154,1.1539,1.1538,1.1522,1.1523,1.1523,1.1524,1.1436,1.1433,1.1429,0,0,0,0,0,0,0,0,0,0,0,0,0,1.1688,1.1753,1.1621,1.1602,1.1599,1.154,1.1539,1.1538,1.1522,1.1523,1.1524,1.1525,1.1437,1.1433,1.1429,1.1382,0,0,1.1415,1.1413,0,0,0,0,0,0,0,0,1.1692,1.1683,1.1605,1.1603,1.16,1.1542,1.1554,1.1485,1.1522,1.1551,1.1524,1.1525,1.147,1.1463,1.1445,1.1378,1.1374,1.1415,1.1412,1.141,1.1409,0,0,0,0,0,0,0,1.1697,1.1687,1.1589,1.1604,1.1601,1.1595,1.1586,1.1541,1.1506,1.1548,1.1547,1.1538,1.1468,1.1449,1.1443,1.1373,1.1415,1.1411,1.1408,1.1406,1.1262,1.1261,0,0,0,0,0,0,1.1706,1.1691,1.1591,1.1586,1.165,1.1592,1.1582,1.156,1.1506,1.1499,1.1537,1.1538,1.1457,1.1448,1.144,1.1381,1.141,1.1406,1.1403,1.1263,1.1262,1.126,0,0,0,0,0,0,1.1709,1.1697,1.1595,1.1638,1.1625,1.1589,1.1563,1.1558,1.1539,1.1498,1.1491,1.1525,1.1457,1.1446,1.1397,1.1377,1.1404,1.14,1.1264,1.1263,1.1261,1.1263,0,0,0,0,0,0,1.1713,1.1698,1.1681,1.1638,1.1622,1.1555,1.1562,1.1555,1.1532,1.1532,1.1484,1.1477,1.1457,1.1403,1.1392,1.1372,1.1396,1.1266,1.1264,1.1262,1.1264,1.1262,1.1259,0,0,0,0,0,1.1718,1.1684,1.1681,1.1669,1.1601,1.1554,1.1544,1.1523,1.1531,1.1512,1.1486,1.1479,1.1382,1.1398,1.1386,1.1364,1.1267,1.1264,1.1262,1.1266,1.1262,1.1259,0,0,0,0,0,0,1.1724,1.1678,1.1674,1.1626,1.1594,1.1551,1.1527,1.152,1.1484,1.1485,1.1458,1.1448,1.14,1.1377,1.1396,1.1315,1.1325,1.1319,1.1332,1.1328,1.1326,1.1331,1.1393,0,0,0,0,0,1.1721,1.1688,1.1648,1.161,1.1594,1.1564,1.1542,1.1529,1.1494,1.148,1.145,1.1415,1.1376,1.1351,1.1313,1.1262,1.125,1.124,1.1237,1.1235,1.123,1.12,1.1195,1.1252,1.1252,1.1252,0,0,1.1711,1.1682,1.1663,1.161,1.1584,1.1549,1.1552,1.1515,1.1488,1.1473,1.1425,1.1402,1.1361,1.131,1.1286,1.1289,1.1213,1.1232,1.1231,1.1227,1.1197,1.1192,1.1187,1.125,1.125,1.125,0,0,1.1677,1.1653,1.1617,1.1591,1.1552,1.1532,1.1524,1.1482,1.1467,1.1419,1.1407,1.1374,1.1308,1.1279,1.1256,1.1211,1.1202,1.1199,1.1184,1.1155,1.1151,1.1147,1.1129,1.1123,1.1195,1.1195,1.1195,0,1.167,1.1619,1.1599,1.1563,1.1539,1.1527,1.149,1.1465,1.1415,1.1398,1.1403,1.1321,1.1292,1.1234,1.1223,1.1205,1.1193,1.1204,1.1153,1.1149,1.1145,1.1128,1.1121,1.1195,1.1195,1.1195,1.1195,0,1.1612,1.1576,1.1552,1.1506,1.148,1.1443,1.1416,1.1392,1.1381,1.136,1.131,1.1276,1.1231,1.1216,1.1204,1.1156,1.1159,1.1159,1.1167,1.1139,1.1123,1.1116,1.1194,1.1195,1.1195,1.1195,0,0,1.1578,1.1523,1.1514,1.1493,1.1449,1.142,1.1382,1.134,1.1319,1.1285,1.1251,1.1196,1.1196,1.117,1.1155,1.1129,1.1094,1.1132,1.1131,1.1125,1.1037,1.1036,1.1029,1.1089,1.1088,1.1087,1.104,0,1.1537,1.1471,1.1453,1.1396,1.1362,1.135,1.1317,1.1285,1.1265,1.1231,1.1208,1.1169,1.1173,1.1156,1.1131,1.1104,1.1076,1.1107,1.1055,1.1054,1.1065,1.1021,1.102,1.0977,1.1034,1.1032,1.1032,0,1.1481,1.1448,1.1388,1.1349,1.1333,1.1304,1.1264,1.1233,1.1196,1.1183,1.1154,1.1141,1.1099,1.1111,1.1052,1.1074,1.1052,1.1035,1.1033,1.1026,1.104,1.1011,1.0963,1.0956,1.1022,1.1022,1.1023,0,1.1461,1.1401,1.1357,1.134,1.1293,1.1272,1.1251,1.1216,1.1192,1.1156,1.114,1.1099,1.1076,1.1044,1.1019,1.1031,1.0962,1.0972,1.0948,1.0948,1.0932,1.0933,1.0878,1.0921,1.0921,1.0921,1.0921,0,1.1416,1.138,1.1348,1.1321,1.1279,1.1258,1.1217,1.1195,1.1164,1.1131,1.1118,1.1087,1.1058,1.1022,1.1003,1.0956,1.0946,1.0933,1.0928,1.0933,1.0934,1.0917,1.0918,1.0919,1.092,1.092,1.092,0,1.1386,1.1363,1.1315,1.1275,1.1264,1.1235,1.12,1.1172,1.1152,1.1111,1.11,1.1066,1.1024,1.0998,1.0943,1.093,1.0878,1.0875,1.0891,1.0888,1.0865,1.0867,1.0795,1.0784,1.0835,1.0835,1.0835,0,1.1359,1.1331,1.1288,1.1266,1.1246,1.1211,1.1186,1.1164,1.1139,1.1095,1.1072,1.103,1.0994,1.0927,1.0897,1.0855,1.0849,1.0827,1.0843,1.0849,1.0847,1.0849,1.0845,1.0824,1.0824,1.0823,1.0823,0,1.1312,1.1302,1.1269,1.1231,1.1202,1.1171,1.114,1.1122,1.1094,1.1066,1.1024,1.0996,1.0942,1.0899,1.0854,1.0831,1.0821,1.0819,1.0811,1.0815,1.0825,1.0818,1.0882,1.082,1.082,1.0821,1.0821,1.0821,1.1281,1.1255,1.1222,1.1184,1.1159,1.113,1.1102,1.1079,1.1044,1.0999,1.0987,1.0942,1.0906,1.0845,1.0821,1.0784,1.0787,1.0775,1.0772,1.0769,1.0768,1.0832,1.0776,1.0776,1.0776,1.0776,1.0776,0,1.1232,1.1211,1.1177,1.1134,1.1104,1.1101,1.1066,1.104,1.1002,1.0969,1.0935,1.0886,1.0844,1.0811,1.0768,1.0745,1.0739,1.0734,1.0735,1.0729,1.0769,1.078,1.0739,1.0739,1.0739,1.0739,1.0739,1.0739,1.1204,1.116,1.1146,1.1089,1.1066,1.1024,1.1004,1.0976,1.0951,1.0897,1.0863,1.0843,1.0809,1.0764,1.0725,1.0716,1.07,1.0695,1.0685,1.0722,1.0726,1.073,1.074,1.0692,1.0692,1.0648,1.0647,1.0647]}]]